DAL024 EGLL-EDDF

Flight info

Callsign DAL024
Flight time 1h 13m
Altitude 35000
Route DET L6 DVR UL9 KONAN UL607 SPI T180 NIVNU T847 IMCOM IMCOM1D
Aircraft A320/M-SDE3FGHIRWY/LB1

Departure

Time 2026-04-15 12:26
Airport London Heathrow Airport (EGLL)

Arrival

Time 2026-04-15 13:39
Airport Frankfurt Main Airport (EDDF)
Time Latitude Longitude Altitude Speed Heading
2026-04-15 12:00 51.47294 -0.46998 85 ft 0 kts 270°
2026-04-15 12:09 51.47294 -0.46984 89 ft 4 kts 273°
2026-04-15 12:09 51.47291 -0.46942 89 ft 4 kts 288°
2026-04-15 12:09 51.47279 -0.46904 88 ft 4 kts 308°
2026-04-15 12:09 51.47260 -0.46875 89 ft 4 kts 338°
2026-04-15 12:10 51.47245 -0.46869 88 ft 0 kts 359°
2026-04-15 12:14 51.47257 -0.46869 89 ft 3 kts 359°
2026-04-15 12:14 51.47287 -0.46869 87 ft 6 kts 359°
2026-04-15 12:15 51.47332 -0.46870 87 ft 7 kts 359°
2026-04-15 12:15 51.47386 -0.46878 89 ft 8 kts 351°
2026-04-15 12:15 51.47442 -0.46898 85 ft 8 kts 347°
2026-04-15 12:15 51.47489 -0.46916 85 ft 6 kts 345°
2026-04-15 12:16 51.47531 -0.46933 88 ft 8 kts 348°
2026-04-15 12:16 51.47587 -0.46867 87 ft 14 kts 70°
2026-04-15 12:16 51.47597 -0.46686 89 ft 18 kts 88°
2026-04-15 12:16 51.47599 -0.46479 89 ft 18 kts 90°
2026-04-15 12:17 51.47599 -0.46289 88 ft 16 kts 91°
2026-04-15 12:17 51.47596 -0.46107 91 ft 16 kts 92°
2026-04-15 12:17 51.47589 -0.45934 85 ft 15 kts 93°
2026-04-15 12:17 51.47590 -0.45776 85 ft 14 kts 85°
2026-04-15 12:18 51.47596 -0.45632 89 ft 12 kts 88°
2026-04-15 12:18 51.47597 -0.45503 85 ft 11 kts 90°
2026-04-15 12:18 51.47597 -0.45397 86 ft 8 kts 90°
2026-04-15 12:18 51.47597 -0.45314 87 ft 8 kts 90°
2026-04-15 12:19 51.47597 -0.45284 87 ft 0 kts 90°
2026-04-15 12:19 51.47597 -0.45273 87 ft 7 kts 89°
2026-04-15 12:19 51.47598 -0.45094 88 ft 17 kts 89°
2026-04-15 12:19 51.47599 -0.44921 89 ft 14 kts 90°
2026-04-15 12:20 51.47600 -0.44770 89 ft 13 kts 88°
2026-04-15 12:20 51.47601 -0.44597 88 ft 18 kts 89°
2026-04-15 12:20 51.47603 -0.44397 87 ft 16 kts 90°
2026-04-15 12:20 51.47600 -0.44317 87 ft 8 kts 94°
2026-04-15 12:21 51.47595 -0.44202 89 ft 5 kts 95°
2026-04-15 12:21 51.47591 -0.44121 85 ft 15 kts 91°
2026-04-15 12:21 51.47592 -0.43937 85 ft 16 kts 88°
2026-04-15 12:21 51.47594 -0.43771 87 ft 14 kts 89°
2026-04-15 12:22 51.47594 -0.43625 85 ft 12 kts 88°
2026-04-15 12:22 51.47605 -0.43564 88 ft 3 kts 60°
2026-04-15 12:22 51.47608 -0.43557 87 ft 0 kts 57°
2026-04-15 12:23 51.47635 -0.43505 89 ft 20 kts 51°
2026-04-15 12:23 51.47720 -0.43424 92 ft 13 kts 353°
2026-04-15 12:23 51.47764 -0.43515 87 ft 0 kts 271°
2026-04-15 12:25 51.47764 -0.43534 87 ft 10 kts 270°
2026-04-15 12:25 51.47752 -0.44081 83 ft 86 kts 270°
2026-04-15 12:25 51.47747 -0.45361 86 ft 142 kts 268°
2026-04-15 12:26 51.47768 -0.47160 311 ft 167 kts 267°
2026-04-15 12:26 51.47811 -0.48990 1138 ft 162 kts 262°
2026-04-15 12:26 51.47783 -0.50788 1899 ft 162 kts 261°
2026-04-15 12:26 51.47672 -0.52667 2306 ft 177 kts 248°
2026-04-15 12:27 51.47044 -0.54461 2610 ft 196 kts 224°
2026-04-15 12:27 51.45824 -0.55666 3040 ft 222 kts 197°
2026-04-15 12:27 51.44233 -0.55589 3821 ft 243 kts 165°
2026-04-15 12:27 51.42800 -0.54019 4864 ft 257 kts 144°
2026-04-15 12:28 51.41487 -0.52049 5638 ft 262 kts 142°
2026-04-15 12:28 51.40181 -0.50014 5908 ft 261 kts 142°
2026-04-15 12:28 51.38877 -0.47959 5995 ft 261 kts 142°
2026-04-15 12:28 51.37587 -0.45932 6014 ft 260 kts 142°
2026-04-15 12:29 51.36290 -0.43910 6015 ft 260 kts 142°
2026-04-15 12:29 51.34985 -0.41891 6005 ft 260 kts 142°
2026-04-15 12:29 51.33679 -0.39879 6002 ft 260 kts 143°
2026-04-15 12:29 51.32379 -0.37862 6009 ft 262 kts 140°
2026-04-15 12:30 51.31467 -0.35292 6007 ft 277 kts 110°
2026-04-15 12:30 51.31238 -0.32192 6009 ft 285 kts 96°
2026-04-15 12:30 51.31309 -0.29015 6010 ft 288 kts 91°
2026-04-15 12:30 51.31456 -0.25826 6009 ft 288 kts 91°
2026-04-15 12:31 51.31580 -0.22591 6006 ft 287 kts 93°
2026-04-15 12:31 51.31645 -0.19447 6015 ft 287 kts 95°
2026-04-15 12:31 51.31664 -0.16257 6008 ft 286 kts 96°
2026-04-15 12:31 51.31650 -0.13072 6009 ft 286 kts 96°
2026-04-15 12:32 51.31616 -0.09914 6013 ft 285 kts 97°
2026-04-15 12:32 51.31571 -0.06743 6012 ft 284 kts 97°
2026-04-15 12:32 51.31523 -0.03587 6002 ft 284 kts 97°
2026-04-15 12:32 51.31471 -0.00383 6007 ft 285 kts 97°
2026-04-15 12:33 51.31419 0.02740 6007 ft 285 kts 97°
2026-04-15 12:33 51.31367 0.05911 6005 ft 285 kts 97°
2026-04-15 12:33 51.31318 0.09105 6013 ft 284 kts 97°
2026-04-15 12:33 51.31270 0.12227 6007 ft 285 kts 97°
2026-04-15 12:34 51.31218 0.15386 6006 ft 285 kts 97°
2026-04-15 12:34 51.31164 0.18608 6014 ft 286 kts 97°
2026-04-15 12:34 51.31109 0.21775 6006 ft 286 kts 97°
2026-04-15 12:34 51.31052 0.24959 6008 ft 286 kts 97°
2026-04-15 12:35 51.30997 0.28077 6013 ft 285 kts 97°
2026-04-15 12:35 51.30941 0.31245 5727 ft 285 kts 97°
2026-04-15 12:35 51.30883 0.34453 5716 ft 285 kts 97°
2026-04-15 12:35 51.30823 0.37607 5708 ft 286 kts 97°
2026-04-15 12:36 51.30764 0.40779 5704 ft 286 kts 97°
2026-04-15 12:36 51.30703 0.43960 5707 ft 286 kts 97°
2026-04-15 12:36 51.30643 0.47140 5707 ft 285 kts 97°
2026-04-15 12:36 51.30583 0.50307 5714 ft 285 kts 97°
2026-04-15 12:37 51.30521 0.53470 5727 ft 285 kts 97°
2026-04-15 12:37 51.30460 0.56590 5741 ft 285 kts 97°
2026-04-15 12:37 51.30329 0.59789 5753 ft 281 kts 106°
2026-04-15 12:37 51.29849 0.62771 5769 ft 277 kts 112°
2026-04-15 12:38 51.29306 0.65727 5785 ft 278 kts 112°
2026-04-15 12:38 51.28763 0.68696 5799 ft 278 kts 112°
2026-04-15 12:38 51.28221 0.71654 5816 ft 277 kts 112°
2026-04-15 12:38 51.27679 0.74613 5838 ft 278 kts 112°
2026-04-15 12:39 51.27137 0.77564 5860 ft 278 kts 112°
2026-04-15 12:39 51.26589 0.80527 5880 ft 278 kts 112°
2026-04-15 12:39 51.26041 0.83500 5906 ft 279 kts 112°
2026-04-15 12:39 51.25494 0.86467 5930 ft 279 kts 113°
2026-04-15 12:40 51.24945 0.89443 6038 ft 279 kts 112°
2026-04-15 12:40 51.24397 0.92411 6045 ft 279 kts 112°
2026-04-15 12:40 51.23847 0.95382 6044 ft 279 kts 112°
2026-04-15 12:40 51.23288 0.98386 6424 ft 287 kts 112°
2026-04-15 12:41 51.22727 1.01408 7416 ft 285 kts 112°
2026-04-15 12:41 51.22161 1.04464 8302 ft 288 kts 113°
2026-04-15 12:41 51.21585 1.07550 9160 ft 293 kts 113°
2026-04-15 12:41 51.21000 1.10684 10018 ft 297 kts 113°
2026-04-15 12:42 51.20392 1.13907 10499 ft 315 kts 112°
2026-04-15 12:42 51.19730 1.17381 10738 ft 339 kts 112°
2026-04-15 12:42 51.19027 1.21076 11139 ft 354 kts 111°
2026-04-15 12:42 51.18317 1.24859 11820 ft 360 kts 111°
2026-04-15 12:43 51.17600 1.28705 12560 ft 364 kts 111°
2026-04-15 12:43 51.16874 1.32597 13314 ft 367 kts 111°
2026-04-15 12:43 51.16260 1.36583 14011 ft 375 kts 102°
2026-04-15 12:43 51.16017 1.40738 14628 ft 381 kts 98°
2026-04-15 12:44 51.15820 1.44968 15257 ft 385 kts 98°
2026-04-15 12:44 51.15620 1.49254 15880 ft 389 kts 98°
2026-04-15 12:44 51.15416 1.53594 16489 ft 394 kts 98°
2026-04-15 12:44 51.15206 1.57959 17084 ft 398 kts 98°
2026-04-15 12:45 51.14989 1.62376 17686 ft 402 kts 99°
2026-04-15 12:45 51.14841 1.65333 18086 ft 405 kts 99°
2026-04-15 12:45 51.14616 1.69838 18640 ft 410 kts 99°
2026-04-15 12:45 51.14388 1.74368 19164 ft 413 kts 99°
2026-04-15 12:46 51.14156 1.79009 19718 ft 417 kts 99°
2026-04-15 12:46 51.13923 1.83639 20256 ft 420 kts 99°
2026-04-15 12:46 51.13687 1.88284 20795 ft 423 kts 99°
2026-04-15 12:46 51.13444 1.92967 21316 ft 426 kts 99°
2026-04-15 12:47 51.13195 1.97692 21854 ft 429 kts 99°
2026-04-15 12:47 51.12945 2.02433 22360 ft 432 kts 99°
2026-04-15 12:47 51.12692 2.07231 22855 ft 435 kts 99°
2026-04-15 12:47 51.12435 2.12049 23345 ft 439 kts 99°
2026-04-15 12:48 51.12174 2.16907 23792 ft 442 kts 99°
2026-04-15 12:48 51.11917 2.21729 24164 ft 444 kts 99°
2026-04-15 12:48 51.11651 2.26688 24539 ft 447 kts 99°
2026-04-15 12:48 51.11385 2.31576 24897 ft 449 kts 99°
2026-04-15 12:49 51.11108 2.36541 25257 ft 452 kts 99°
2026-04-15 12:49 51.10822 2.41593 25624 ft 454 kts 99°
2026-04-15 12:49 51.10539 2.46555 25971 ft 456 kts 99°
2026-04-15 12:49 51.10245 2.51647 26315 ft 459 kts 99°
2026-04-15 12:50 51.09953 2.56674 26651 ft 461 kts 99°
2026-04-15 12:50 51.09660 2.61762 26978 ft 464 kts 99°
2026-04-15 12:50 51.09157 2.66807 27295 ft 461 kts 108°
2026-04-15 12:50 51.08301 2.71711 27602 ft 462 kts 111°
2026-04-15 12:51 51.07408 2.76633 27920 ft 464 kts 111°
2026-04-15 12:51 51.06512 2.81567 28223 ft 466 kts 111°
2026-04-15 12:51 51.05610 2.86529 28518 ft 468 kts 110°
2026-04-15 12:51 51.04702 2.91511 28795 ft 470 kts 111°
2026-04-15 12:52 51.03790 2.96495 29063 ft 473 kts 111°
2026-04-15 12:52 51.02867 3.01529 29345 ft 475 kts 110°
2026-04-15 12:52 51.01939 3.06584 29615 ft 477 kts 110°
2026-04-15 12:52 51.01008 3.11638 29852 ft 479 kts 110°
2026-04-15 12:53 51.00069 3.16722 30117 ft 480 kts 110°
2026-04-15 12:53 50.99129 3.21801 30413 ft 479 kts 110°
2026-04-15 12:53 50.98186 3.26873 30706 ft 478 kts 111°
2026-04-15 12:53 50.97245 3.31912 30985 ft 478 kts 110°
2026-04-15 12:54 50.96294 3.36994 31265 ft 478 kts 110°
2026-04-15 12:54 50.95350 3.42035 31542 ft 477 kts 110°
2026-04-15 12:54 50.94401 3.47075 31824 ft 477 kts 111°
2026-04-15 12:54 50.93437 3.52189 32108 ft 477 kts 110°
2026-04-15 12:55 50.92488 3.57219 32386 ft 477 kts 110°
2026-04-15 12:55 50.91537 3.62251 32664 ft 477 kts 110°
2026-04-15 12:55 50.90583 3.67279 32957 ft 476 kts 111°
2026-04-15 12:55 50.89619 3.72310 33238 ft 476 kts 111°
2026-04-15 12:56 50.88655 3.77304 33517 ft 476 kts 111°
2026-04-15 12:56 50.87679 3.82336 33802 ft 476 kts 111°
2026-04-15 12:56 50.86705 3.87344 34091 ft 476 kts 111°
2026-04-15 12:56 50.85742 3.92276 34353 ft 475 kts 111°
2026-04-15 12:57 50.84756 3.97316 34608 ft 475 kts 111°
2026-04-15 12:57 50.83789 4.02259 34866 ft 474 kts 111°
2026-04-15 12:57 50.82804 4.07293 35100 ft 474 kts 110°
2026-04-15 12:58 50.80851 4.17258 35161 ft 475 kts 110°
2026-04-15 12:58 50.78896 4.27168 35163 ft 475 kts 110°
2026-04-15 12:59 50.75915 4.42152 35170 ft 475 kts 110°
2026-04-15 12:59 50.73911 4.52121 35165 ft 476 kts 110°
2026-04-15 13:00 50.71909 4.62069 35168 ft 476 kts 110°
2026-04-15 13:00 50.69961 4.72034 35161 ft 476 kts 109°
2026-04-15 13:01 50.68040 4.82049 35173 ft 476 kts 109°
2026-04-15 13:01 50.66103 4.92041 35173 ft 476 kts 109°
2026-04-15 13:02 50.64094 5.01998 35178 ft 476 kts 110°
2026-04-15 13:02 50.62025 5.11911 35180 ft 476 kts 110°
2026-04-15 13:03 50.59950 5.21821 35183 ft 477 kts 110°
2026-04-15 13:03 50.57897 5.31733 35185 ft 477 kts 110°
2026-04-15 13:04 50.55839 5.41645 35185 ft 477 kts 110°
2026-04-15 13:04 50.53763 5.51537 35180 ft 477 kts 110°
2026-04-15 13:05 50.51671 5.61416 35183 ft 477 kts 110°
2026-04-15 13:05 50.49681 5.71374 35177 ft 477 kts 107°
2026-04-15 13:06 50.47867 5.81383 35176 ft 477 kts 107°
2026-04-15 13:06 50.46051 5.91402 35174 ft 477 kts 107°
2026-04-15 13:07 50.44174 6.01403 35178 ft 477 kts 107°
2026-04-15 13:07 50.42263 6.11361 35184 ft 477 kts 107°
2026-04-15 13:08 50.40337 6.21342 35185 ft 477 kts 107°
2026-04-15 13:08 50.39376 6.26328 34471 ft 481 kts 107°
2026-04-15 13:08 50.38401 6.31399 33143 ft 491 kts 107°
2026-04-15 13:09 50.37411 6.36553 32114 ft 491 kts 107°
2026-04-15 13:09 50.36533 6.41693 31100 ft 492 kts 101°
2026-04-15 13:09 50.36073 6.47018 29895 ft 495 kts 95°
2026-04-15 13:09 50.35754 6.52405 28764 ft 494 kts 95°
2026-04-15 13:10 50.35431 6.57717 28157 ft 484 kts 95°
2026-04-15 13:10 50.35102 6.62918 27413 ft 478 kts 95°
2026-04-15 13:10 50.34768 6.68048 26714 ft 472 kts 96°
2026-04-15 13:10 50.34431 6.73147 25997 ft 467 kts 96°
2026-04-15 13:11 50.34102 6.78153 25314 ft 463 kts 96°
2026-04-15 13:11 50.33733 6.83150 24628 ft 459 kts 100°
2026-04-15 13:11 50.32959 6.87983 23956 ft 455 kts 110°
2026-04-15 13:11 50.31742 6.92513 23265 ft 450 kts 116°
2026-04-15 13:12 50.30423 6.96919 22632 ft 444 kts 116°
2026-04-15 13:12 50.29118 7.01273 22016 ft 439 kts 116°
2026-04-15 13:12 50.27839 7.05547 21468 ft 433 kts 116°
2026-04-15 13:12 50.26566 7.09800 20905 ft 428 kts 116°
2026-04-15 13:13 50.25310 7.13992 20350 ft 424 kts 116°
2026-04-15 13:13 50.24065 7.18144 19800 ft 420 kts 116°
2026-04-15 13:13 50.22832 7.22254 19244 ft 417 kts 116°
2026-04-15 13:13 50.21605 7.26336 18709 ft 414 kts 116°
2026-04-15 13:14 50.20384 7.30399 18124 ft 412 kts 116°
2026-04-15 13:14 50.19198 7.34443 17585 ft 408 kts 114°
2026-04-15 13:14 50.18131 7.38521 17058 ft 404 kts 112°
2026-04-15 13:14 50.17161 7.42605 16528 ft 400 kts 110°
2026-04-15 13:15 50.16239 7.46682 16009 ft 397 kts 110°
2026-04-15 13:15 50.15329 7.50720 15500 ft 393 kts 110°
2026-04-15 13:15 50.14415 7.54713 14988 ft 390 kts 111°
2026-04-15 13:15 50.13491 7.58669 14486 ft 387 kts 111°
2026-04-15 13:16 50.12555 7.62591 13979 ft 383 kts 112°
2026-04-15 13:16 50.11621 7.66461 13440 ft 379 kts 112°
2026-04-15 13:16 50.10723 7.70283 12962 ft 374 kts 110°
2026-04-15 13:16 50.09919 7.74113 12525 ft 370 kts 108°
2026-04-15 13:17 50.09181 7.77927 12085 ft 368 kts 107°
2026-04-15 13:17 50.08565 7.81785 11646 ft 365 kts 99°
2026-04-15 13:17 50.08446 7.85727 11213 ft 364 kts 87°
2026-04-15 13:17 50.08834 7.89594 11040 ft 363 kts 76°
2026-04-15 13:18 50.09652 7.93325 10957 ft 364 kts 69°
2026-04-15 13:18 50.10558 7.97055 10832 ft 358 kts 69°
2026-04-15 13:18 50.11406 8.00547 10709 ft 343 kts 69°
2026-04-15 13:18 50.12232 8.03947 10588 ft 329 kts 69°
2026-04-15 13:19 50.13039 8.07267 10464 ft 317 kts 69°
2026-04-15 13:19 50.13797 8.10391 10330 ft 306 kts 69°
2026-04-15 13:19 50.14541 8.13463 10145 ft 300 kts 70°
2026-04-15 13:19 50.15284 8.16532 10081 ft 299 kts 70°
2026-04-15 13:20 50.16012 8.19536 10011 ft 299 kts 69°
2026-04-15 13:20 50.16743 8.22549 9899 ft 298 kts 69°
2026-04-15 13:20 50.17487 8.25618 9786 ft 297 kts 70°
2026-04-15 13:20 50.18209 8.28603 9686 ft 297 kts 70°
2026-04-15 13:21 50.18933 8.31596 9583 ft 296 kts 70°
2026-04-15 13:21 50.19361 8.34703 9475 ft 293 kts 92°
2026-04-15 13:21 50.18915 8.37770 9374 ft 289 kts 118°
2026-04-15 13:21 50.17685 8.40202 9247 ft 285 kts 144°
2026-04-15 13:22 50.16569 8.41236 9169 ft 283 kts 159°
2026-04-15 13:22 50.14069 8.42421 8989 ft 280 kts 177°
2026-04-15 13:22 50.12787 8.42285 8922 ft 278 kts 195°
2026-04-15 13:22 50.11059 8.40949 8806 ft 276 kts 221°
2026-04-15 13:23 50.09920 8.38580 8694 ft 276 kts 246°
2026-04-15 13:23 50.09229 8.35782 8612 ft 277 kts 249°
2026-04-15 13:23 50.08556 8.32983 8511 ft 276 kts 249°
2026-04-15 13:23 50.07883 8.30187 8408 ft 276 kts 249°
2026-04-15 13:24 50.07217 8.27425 8312 ft 275 kts 249°
2026-04-15 13:24 50.06533 8.24602 8214 ft 275 kts 248°
2026-04-15 13:24 50.05861 8.21834 8115 ft 274 kts 248°
2026-04-15 13:24 50.05190 8.19093 8006 ft 273 kts 248°
2026-04-15 13:25 50.04512 8.16332 7906 ft 273 kts 248°
2026-04-15 13:25 50.03828 8.13545 7809 ft 272 kts 248°
2026-04-15 13:25 50.03154 8.10792 7714 ft 271 kts 249°
2026-04-15 13:25 50.02484 8.08055 7621 ft 271 kts 248°
2026-04-15 13:26 50.01816 8.05324 7526 ft 270 kts 248°
2026-04-15 13:26 50.01146 8.02584 7432 ft 270 kts 248°
2026-04-15 13:26 50.00479 7.99862 7338 ft 270 kts 248°
2026-04-15 13:26 49.99815 7.97146 7240 ft 269 kts 248°
2026-04-15 13:27 49.99149 7.94424 7142 ft 269 kts 248°
2026-04-15 13:27 49.98483 7.91700 7059 ft 269 kts 248°
2026-04-15 13:27 49.97815 7.88979 6956 ft 269 kts 248°
2026-04-15 13:27 49.97151 7.86271 6861 ft 269 kts 248°
2026-04-15 13:28 49.96484 7.83554 6772 ft 268 kts 248°
2026-04-15 13:28 49.95805 7.80861 6676 ft 267 kts 243°
2026-04-15 13:28 49.94664 7.78663 6569 ft 264 kts 214°
2026-04-15 13:28 49.92974 7.77677 6466 ft 263 kts 184°
2026-04-15 13:29 49.91182 7.78140 6358 ft 265 kts 155°
2026-04-15 13:29 49.89771 7.79957 6250 ft 268 kts 125°
2026-04-15 13:29 49.89033 7.82608 6151 ft 271 kts 108°
2026-04-15 13:29 49.88719 7.85486 6051 ft 272 kts 93°
2026-04-15 13:30 49.88892 7.88421 5950 ft 274 kts 78°
2026-04-15 13:30 49.89502 7.91203 5837 ft 271 kts 70°
2026-04-15 13:30 49.90158 7.93871 5733 ft 257 kts 71°
2026-04-15 13:30 49.90769 7.96412 5631 ft 245 kts 71°
2026-04-15 13:31 49.91359 7.98833 5520 ft 234 kts 71°
2026-04-15 13:31 49.91929 8.01155 5427 ft 225 kts 71°
2026-04-15 13:31 49.92471 8.03366 5324 ft 215 kts 71°
2026-04-15 13:31 49.92995 8.05508 5234 ft 207 kts 71°
2026-04-15 13:32 49.93493 8.07542 5145 ft 196 kts 71°
2026-04-15 13:32 49.93963 8.09463 5049 ft 185 kts 71°
2026-04-15 13:32 49.94403 8.11263 4999 ft 172 kts 72°
2026-04-15 13:32 49.94808 8.12923 4998 ft 157 kts 71°
2026-04-15 13:33 49.95183 8.14462 4994 ft 150 kts 72°
2026-04-15 13:33 49.95551 8.15976 5001 ft 149 kts 71°
2026-04-15 13:33 49.95916 8.17476 4987 ft 150 kts 72°
2026-04-15 13:33 49.96286 8.18997 4768 ft 149 kts 72°
2026-04-15 13:34 49.96645 8.20471 4562 ft 147 kts 72°
2026-04-15 13:34 49.97011 8.21980 4353 ft 148 kts 71°
2026-04-15 13:34 49.97376 8.23482 4131 ft 151 kts 71°
2026-04-15 13:34 49.97746 8.25008 3909 ft 147 kts 71°
2026-04-15 13:35 49.98102 8.26473 3720 ft 149 kts 71°
2026-04-15 13:35 49.98466 8.27975 3490 ft 147 kts 71°
2026-04-15 13:35 49.98822 8.29446 3287 ft 146 kts 71°
2026-04-15 13:35 49.99179 8.30920 3074 ft 146 kts 73°
2026-04-15 13:36 49.99542 8.32422 2878 ft 150 kts 70°
2026-04-15 13:36 49.99905 8.33921 2642 ft 145 kts 71°
2026-04-15 13:36 50.00257 8.35379 2442 ft 144 kts 72°
2026-04-15 13:36 50.00607 8.36833 2220 ft 144 kts 71°
2026-04-15 13:37 50.00955 8.38272 2017 ft 142 kts 71°
2026-04-15 13:37 50.01302 8.39715 1796 ft 141 kts 70°
2026-04-15 13:37 50.01644 8.41132 1606 ft 141 kts 71°
2026-04-15 13:37 50.01987 8.42557 1395 ft 141 kts 71°
2026-04-15 13:38 50.02329 8.43979 1179 ft 141 kts 70°
2026-04-15 13:38 50.02674 8.45410 957 ft 141 kts 70°
2026-04-15 13:38 50.03015 8.46830 762 ft 140 kts 70°
2026-04-15 13:38 50.03356 8.48252 572 ft 140 kts 69°
2026-04-15 13:39 50.03691 8.49673 374 ft 139 kts 70°
2026-04-15 13:39 50.04007 8.50995 354 ft 113 kts 67°
2026-04-15 13:39 50.04232 8.51908 348 ft 71 kts 70°
2026-04-15 13:39 50.04345 8.52375 348 ft 33 kts 69°
2026-04-15 13:40 50.04403 8.52695 345 ft 27 kts 92°
2026-04-15 13:40 50.04380 8.52920 349 ft 0 kts 103°
2026-04-15 13:41 50.04374 8.52962 349 ft 9 kts 103°
2026-04-15 13:41 50.04364 8.53057 346 ft 10 kts 96°
2026-04-15 13:42 50.04358 8.53154 346 ft 8 kts 96°
2026-04-15 13:42 50.04353 8.53237 346 ft 7 kts 93°
2026-04-15 13:42 50.04356 8.53307 355 ft 6 kts 81°
2026-04-15 13:42 50.04367 8.53364 351 ft 5 kts 70°
2026-04-15 13:43 50.04383 8.53426 346 ft 8 kts 68°
2026-04-15 13:43 50.04401 8.53535 350 ft 12 kts 82°
2026-04-15 13:43 50.04408 8.53680 349 ft 14 kts 86°
2026-04-15 13:43 50.04417 8.53843 346 ft 16 kts 83°
2026-04-15 13:44 50.04430 8.54030 354 ft 19 kts 84°
2026-04-15 13:44 50.04443 8.54244 353 ft 21 kts 84°
2026-04-15 13:44 50.04450 8.54482 347 ft 23 kts 99°
2026-04-15 13:44 50.04372 8.54705 349 ft 25 kts 135°
2026-04-15 13:45 50.04212 8.54829 347 ft 27 kts 161°
2026-04-15 13:45 50.04090 8.54898 348 ft 12 kts 159°
2026-04-15 13:45 50.04033 8.54941 351 ft 8 kts 136°
2026-04-15 13:47 50.04139 8.55521 346 ft 12 kts 70°
2026-04-15 13:47 50.04156 8.55591 351 ft 2 kts 69°
2026-04-15 13:47 50.04154 8.55650 354 ft 6 kts 139°
2026-04-15 13:48 50.04117 8.55668 348 ft 5 kts 166°
2026-04-15 13:48 50.04088 8.55678 348 ft 3 kts 167°
2026-04-15 13:48 50.04075 8.55683 346 ft 1 kts 168°
2026-04-15 13:48 50.04071 8.55684 346 ft 0 kts 169°
2026-04-15 13:49 50.04068 8.55685 346 ft 0 kts 168°
2026-04-15 13:50 50.04073 8.55681 346 ft 0 kts 161°